| time (UTC) | temp C | wind direction | speed KPH | gust KPH | rain 1hr cm | rain 24hr cm | rain mn cm | humidity % | barometer mb |
| 20260506044303 | 0 | 261 | 0.0 | 1.6 | 0.00 | 0.10 | 0.00 | 76 | 1010.4 |
| 20260506043804 | 0 | 261 | 0.0 | 1.6 | 0.00 | 0.10 | 0.00 | 76 | 1010.4 |
| 20260506043304 | 0 | 261 | 0.0 | 1.6 | 0.00 | 0.10 | 0.00 | 77 | 1010.3 |
| 20260506042305 | 0 | 261 | 0.0 | 0.0 | 0.00 | 0.10 | 0.00 | 77 | 1010.5 |
| 20260506041803 | 0 | 261 | 0.0 | 0.0 | 0.00 | 0.10 | 0.00 | 77 | 1010.5 |
| 20260506041304 | 0 | 261 | 0.0 | 0.0 | 0.00 | 0.10 | 0.00 | 76 | 1010.4 |
| 20260506040804 | 0 | 261 | 0.0 | 0.0 | 0.00 | 0.10 | 0.00 | 76 | 1010.5 |
| 20260506040304 | 0 | 261 | 0.0 | 0.0 | 0.00 | 0.10 | 0.00 | 75 | 1010.5 |
| 20260506035804 | 0 | 281 | 0.0 | 1.6 | 0.00 | 0.10 | 0.00 | 75 | 1010.5 |
| 20260506035306 | 0 | 281 | 0.0 | 1.6 | 0.00 | 0.10 | 0.00 | 75 | 1010.5 |
| 20260506034304 | 0 | 281 | 0.0 | 0.0 | 0.00 | 0.10 | 0.00 | 76 | 1010.4 |
| 20260506033803 | 0 | 281 | 0.0 | 0.0 | 0.00 | 0.10 | 0.00 | 77 | 1010.4 |
| 20260506033303 | 0 | 281 | 0.0 | 1.6 | 0.00 | 0.10 | 0.00 | 77 | 1010.4 |
| 20260506032804 | 0 | 281 | 0.0 | 1.6 | 0.00 | 0.10 | 0.00 | 77 | 1010.4 |
| 20260506032305 | 0 | 281 | 0.0 | 0.0 | 0.00 | 0.10 | 0.00 | 76 | 1010.4 |
| 20260506031303 | 0 | 281 | 0.0 | 1.6 | 0.00 | 0.10 | 0.00 | 76 | 1010.4 |
| 20260506030303 | 0 | 281 | 0.0 | 1.6 | 0.00 | 0.10 | 0.00 | 76 | 1010.5 |
| 20260506025803 | 0 | 281 | 0.0 | 1.6 | 0.00 | 0.10 | 0.00 | 76 | 1010.5 |
| 20260506024804 | 0 | 281 | 0.0 | 1.6 | 0.00 | 0.10 | 0.00 | 77 | 1010.5 |
| 20260506024304 | 0 | 281 | 0.0 | 0.0 | 0.00 | 0.10 | 0.00 | 77 | 1010.5 |
| 20260506023303 | 0 | 281 | 0.0 | 1.6 | 0.00 | 0.10 | 0.00 | 75 | 1010.6 |
| 20260506022804 | 0 | 281 | 0.0 | 0.0 | 0.00 | 0.10 | 0.00 | 77 | 1010.6 |
| 20260506021803 | 0 | 281 | 0.0 | 1.6 | 0.00 | 0.10 | 0.00 | 77 | 1010.6 |
| 20260506020804 | 0 | 281 | 0.0 | 1.6 | 0.00 | 0.10 | 0.00 | 74 | 1010.7 |
| 20260506014303 | 0 | 282 | 0.0 | 0.0 | 0.00 | 0.10 | 0.00 | 78 | 1010.8 |
| 20260506013803 | 0 | 282 | 0.0 | 0.0 | 0.00 | 0.10 | 0.00 | 77 | 1010.7 |
| 20260506013303 | 0 | 282 | 0.0 | 0.0 | 0.00 | 0.10 | 0.00 | 78 | 1010.8 |
| 20260506012803 | 0 | 282 | 0.0 | 1.6 | 0.00 | 0.10 | 0.00 | 78 | 1010.7 |
| 20260506011803 | 0 | 282 | 0.0 | 1.6 | 0.00 | 0.10 | 0.00 | 78 | 1010.8 |
| 20260506011304 | 0 | 282 | 0.0 | 1.6 | 0.00 | 0.10 | 0.00 | 77 | 1010.7 |
| 20260506010804 | 0 | 282 | 0.0 | 1.6 | 0.00 | 0.10 | 0.00 | 76 | 1010.6 |
| 20260506005804 | 0 | 282 | 0.0 | 1.6 | 0.00 | 0.10 | 0.00 | 78 | 1010.6 |
| 20260506005306 | 0 | 282 | 0.0 | 1.6 | 0.00 | 0.10 | 0.00 | 79 | 1010.6 |
| 20260506004803 | 0 | 282 | 0.0 | 0.0 | 0.00 | 0.10 | 0.00 | 78 | 1010.6 |
| 20260506004304 | 0 | 282 | 0.0 | 0.0 | 0.00 | 0.10 | 0.00 | 78 | 1010.6 |
| 20260506003804 | 0 | 282 | 1.6 | 1.6 | 0.00 | 0.10 | 0.00 | 77 | 1010.6 |
| 20260506003304 | 0 | 300 | 0.0 | 1.6 | 0.00 | 0.10 | 0.00 | 78 | 1010.6 |
| 20260506002804 | 0 | 8 | 0.0 | 1.6 | 0.00 | 0.10 | 0.00 | 77 | 1010.6 |
| 20260506002305 | 0 | 306 | 0.0 | 3.2 | 0.00 | 0.10 | 0.00 | 79 | 1010.7 |
| 20260506001803 | 0 | 306 | 0.0 | 1.6 | 0.00 | 0.10 | 0.00 | 79 | 1010.7 |
| 20260506001304 | 0 | 278 | 0.0 | 1.6 | 0.00 | 0.10 | 0.00 | 81 | 1010.7 |
| 20260506000803 | 0 | 278 | 0.0 | 0.0 | 0.00 | 0.10 | 0.00 | 81 | 1010.8 |
| 20260506000303 | 0 | 278 | 0.0 | 0.0 | 0.00 | 0.10 | 0.00 | 81 | 1010.8 |
| 20260505235804 | 0 | 278 | 0.0 | 1.6 | 0.00 | 0.10 | 0.00 | 81 | 1010.9 |
| 20260505235305 | -1 | 278 | 0.0 | 1.6 | 0.00 | 0.10 | 0.00 | 80 | 1010.9 |
| 20260505234804 | -1 | 278 | 0.0 | 1.6 | 0.00 | 0.10 | 0.00 | 81 | 1010.9 |
| 20260505234303 | -1 | 278 | 0.0 | 1.6 | 0.00 | 0.10 | 0.00 | 82 | 1010.9 |
| 20260505233804 | -1 | 278 | 0.0 | 1.6 | 0.00 | 0.10 | 0.00 | 82 | 1010.9 |
| 20260505232803 | -1 | 278 | 0.0 | 1.6 | 0.00 | 0.10 | 0.00 | 83 | 1010.8 |
| 20260505231804 | -1 | 271 | 0.0 | 0.0 | 0.00 | 0.10 | 0.00 | 84 | 1010.7 |
| 20260505231304 | -1 | 271 | 0.0 | 1.6 | 0.00 | 0.10 | 0.00 | 84 | 1010.9 |
| 20260505230804 | -1 | 271 | 1.6 | 3.2 | 0.00 | 0.10 | 0.00 | 85 | 1011.0 |
| 20260505230304 | -1 | 271 | 1.6 | 3.2 | 0.00 | 0.10 | 0.00 | 84 | 1010.9 |
| 20260505225804 | -1 | 266 | 0.0 | 1.6 | 0.00 | 0.10 | 0.00 | 83 | 1010.9 |
| 20260505225305 | -1 | 266 | 0.0 | 1.6 | 0.00 | 0.10 | 0.00 | 83 | 1010.9 |
| 20260505224804 | -1 | 266 | 1.6 | 3.2 | 0.00 | 0.10 | 0.00 | 83 | 1010.9 |
| 20260505224303 | 0 | 271 | 0.0 | 0.0 | 0.00 | 0.10 | 0.00 | 82 | 1010.7 |
| 20260505223803 | 0 | 271 | 1.6 | 3.2 | 0.00 | 0.10 | 0.00 | 82 | 1010.7 |
| 20260505223303 | 0 | 271 | 0.0 | 1.6 | 0.00 | 0.10 | 0.00 | 81 | 1010.7 |
| 20260505222306 | 0 | 271 | 0.0 | 1.6 | 0.00 | 0.10 | 0.00 | 82 | 1010.7 |
| 20260505221803 | 0 | 271 | 0.0 | 1.6 | 0.00 | 0.10 | 0.00 | 82 | 1010.7 |
| 20260505221304 | 0 | 271 | 0.0 | 1.6 | 0.00 | 0.10 | 0.00 | 82 | 1010.7 |
| 20260505220803 | 0 | 271 | 0.0 | 1.6 | 0.00 | 0.10 | 0.00 | 83 | 1010.6 |
| 20260505220304 | 0 | 271 | 0.0 | 1.6 | 0.00 | 0.10 | 0.00 | 83 | 1010.6 |
| 20260505215804 | 0 | 271 | 0.0 | 1.6 | 0.00 | 0.10 | 0.10 | 83 | 1010.7 |
| 20260505215305 | 0 | 271 | 0.0 | 1.6 | 0.00 | 0.10 | 0.10 | 82 | 1010.7 |
| 20260505214804 | 0 | 271 | 0.0 | 1.6 | 0.00 | 0.10 | 0.10 | 82 | 1010.6 |
| 20260505214304 | 0 | 271 | 0.0 | 1.6 | 0.00 | 0.10 | 0.10 | 82 | 1010.6 |
| 20260505213804 | 0 | 271 | 0.0 | 0.0 | 0.00 | 0.10 | 0.10 | 81 | 1010.7 |
| 20260505213304 | 0 | 271 | 0.0 | 1.6 | 0.00 | 0.10 | 0.10 | 81 | 1010.6 |
| 20260505212804 | 0 | 271 | 0.0 | 0.0 | 0.00 | 0.10 | 0.10 | 81 | 1010.5 |
| 20260505212305 | 0 | 271 | 0.0 | 0.0 | 0.00 | 0.10 | 0.10 | 81 | 1010.6 |
| 20260505211803 | 0 | 271 | 0.0 | 0.0 | 0.00 | 0.10 | 0.10 | 80 | 1010.6 |
| 20260505210804 | 0 | 271 | 0.0 | 0.0 | 0.00 | 0.10 | 0.10 | 81 | 1010.6 |
| 20260505205804 | 0 | 271 | 0.0 | 1.6 | 0.00 | 0.10 | 0.10 | 80 | 1010.6 |
| 20260505205305 | 0 | 271 | 0.0 | 0.0 | 0.00 | 0.10 | 0.10 | 80 | 1010.6 |
| 20260505204804 | 0 | 271 | 0.0 | 0.0 | 0.00 | 0.10 | 0.10 | 79 | 1010.6 |
| 20260505204303 | 0 | 271 | 0.0 | 1.6 | 0.00 | 0.10 | 0.10 | 79 | 1010.6 |
| 20260505203804 | 0 | 271 | 0.0 | 0.0 | 0.00 | 0.10 | 0.10 | 79 | 1010.5 |
| 20260505203304 | 0 | 271 | 0.0 | 0.0 | 0.00 | 0.10 | 0.10 | 79 | 1010.5 |
| 20260505202306 | 0 | 271 | 0.0 | 1.6 | 0.00 | 0.10 | 0.10 | 78 | 1010.4 |
| 20260505201803 | 0 | 271 | 0.0 | 1.6 | 0.00 | 0.10 | 0.10 | 78 | 1010.6 |
| 20260505201304 | 0 | 271 | 0.0 | 1.6 | 0.00 | 0.10 | 0.10 | 78 | 1010.5 |
| 20260505200804 | 0 | 271 | 0.0 | 1.6 | 0.00 | 0.10 | 0.10 | 78 | 1010.4 |
| 20260505195803 | 0 | 271 | 0.0 | 1.6 | 0.00 | 0.10 | 0.10 | 78 | 1010.5 |
| 20260505195305 | 0 | 271 | 0.0 | 3.2 | 0.00 | 0.10 | 0.10 | 78 | 1010.4 |
| 20260505194804 | 0 | 273 | 0.0 | 3.2 | 0.00 | 0.10 | 0.10 | 77 | 1010.4 |
| 20260505194304 | 0 | 269 | 0.0 | 1.6 | 0.00 | 0.10 | 0.10 | 77 | 1010.4 |
| 20260505193304 | 0 | 279 | 0.0 | 3.2 | 0.00 | 0.10 | 0.10 | 78 | 1010.3 |
| 20260505192803 | 0 | 276 | 0.0 | 4.8 | 0.00 | 0.10 | 0.10 | 78 | 1010.3 |
| 20260505191304 | 0 | 280 | 3.2 | 9.7 | 0.00 | 0.10 | 0.10 | 78 | 1009.9 |
| 20260505190303 | 0 | 274 | 3.2 | 11.3 | 0.00 | 0.10 | 0.10 | 79 | 1010.0 |
| 20260505184303 | 1 | 278 | 1.6 | 4.8 | 0.00 | 0.10 | 0.10 | 77 | 1009.8 |
| 20260505183804 | 1 | 268 | 1.6 | 4.8 | 0.00 | 0.10 | 0.10 | 76 | 1009.8 |
| 20260505182804 | 1 | 272 | 0.0 | 1.6 | 0.00 | 0.10 | 0.10 | 76 | 1009.8 |
| 20260505182306 | 1 | 272 | 0.0 | 4.8 | 0.00 | 0.10 | 0.10 | 76 | 1009.8 |
| 20260505181804 | 1 | 274 | 0.0 | 3.2 | 0.00 | 0.10 | 0.10 | 76 | 1009.7 |
| 20260505180303 | 1 | 265 | 1.6 | 4.8 | 0.00 | 0.10 | 0.10 | 75 | 1009.7 |
| 20260505175803 | 1 | 256 | 3.2 | 9.7 | 0.00 | 0.10 | 0.10 | 74 | 1009.6 |
| 20260505175305 | 1 | 266 | 0.0 | 4.8 | 0.00 | 0.10 | 0.10 | 74 | 1009.7 |
| 20260505174804 | 1 | 253 | 1.6 | 8.0 | 0.00 | 0.10 | 0.10 | 73 | 1009.6 |
| 20260505174304 | 1 | 270 | 0.0 | 3.2 | 0.00 | 0.10 | 0.10 | 76 | 1009.6 |
| 20260505173804 | 1 | 270 | 0.0 | 3.2 | 0.00 | 0.10 | 0.10 | 76 | 1009.6 |
| 20260505172804 | 1 | 283 | 3.2 | 9.7 | 0.00 | 0.10 | 0.10 | 75 | 1009.6 |
| 20260505172305 | 1 | 262 | 3.2 | 11.3 | 0.00 | 0.10 | 0.10 | 76 | 1009.6 |
| 20260505171804 | 1 | 274 | 3.2 | 8.0 | 0.00 | 0.10 | 0.10 | 76 | 1009.7 |
| 20260505171304 | 1 | 254 | 1.6 | 4.8 | 0.00 | 0.10 | 0.10 | 77 | 1009.7 |
| 20260505170804 | 1 | 261 | 0.0 | 4.8 | 0.00 | 0.10 | 0.10 | 79 | 1009.7 |
| 20260505170303 | 1 | 224 | 1.6 | 4.8 | 0.00 | 0.10 | 0.10 | 79 | 1009.7 |
| 20260505165804 | 1 | 247 | 3.2 | 4.8 | 0.00 | 0.10 | 0.10 | 77 | 1009.7 |
| 20260505165306 | 1 | 251 | 3.2 | 4.8 | 0.00 | 0.10 | 0.10 | 77 | 1009.7 |
| 20260505164803 | 1 | 240 | 3.2 | 8.0 | 0.00 | 0.10 | 0.10 | 77 | 1009.7 |
| 20260505164304 | 1 | 235 | 1.6 | 11.3 | 0.00 | 0.10 | 0.10 | 78 | 1009.7 |
| 20260505163803 | 1 | 212 | 4.8 | 14.5 | 0.00 | 0.10 | 0.10 | 77 | 1009.7 |
| 20260505163303 | 1 | 228 | 1.6 | 4.8 | 0.00 | 0.10 | 0.10 | 77 | 1009.8 |
| 20260505162804 | 1 | 264 | 1.6 | 4.8 | 0.00 | 0.10 | 0.10 | 77 | 1009.6 |
| 20260505162306 | 1 | 216 | 0.0 | 4.8 | 0.00 | 0.10 | 0.10 | 77 | 1009.5 |
| 20260505161804 | 1 | 230 | 1.6 | 4.8 | 0.00 | 0.10 | 0.10 | 77 | 1009.7 |
| 20260505161304 | 1 | 233 | 0.0 | 1.6 | 0.00 | 0.10 | 0.10 | 79 | 1009.6 |
| 20260505153304 | 2 | 250 | 8.0 | 14.5 | 0.00 | 0.10 | 0.10 | 70 | 1009.3 |
| 20260505152305 | 2 | 223 | 1.6 | 4.8 | 0.00 | 0.10 | 0.10 | 70 | 1009.3 |
| 20260505151804 | 2 | 254 | 1.6 | 4.8 | 0.00 | 0.10 | 0.10 | 71 | 1009.2 |
| 20260505151303 | 3 | 2 | 0.0 | 1.6 | 0.00 | 0.10 | 0.10 | 69 | 1009.1 |
| 20260505150804 | 3 | 257 | 0.0 | 8.0 | 0.00 | 0.10 | 0.10 | 74 | 1009.2 |
| 20260505150304 | 2 | 255 | 3.2 | 9.7 | 0.00 | 0.10 | 0.10 | 71 | 1009.1 |
| 20260505130304 | 1 | 41 | 1.6 | 4.8 | 0.00 | 0.10 | 0.10 | 81 | 1009.3 |
| 20260505124804 | 1 | 30 | 1.6 | 4.8 | 0.00 | 0.10 | 0.10 | 81 | 1009.2 |
| 20260505123804 | 0 | 273 | 0.0 | 4.8 | 0.00 | 0.10 | 0.10 | 85 | 1009.2 |
| 20260505123303 | 0 | 271 | 0.0 | 3.2 | 0.00 | 0.10 | 0.10 | 83 | 1009.1 |
| 20260505122804 | 0 | 257 | 0.0 | 4.8 | 0.00 | 0.10 | 0.10 | 82 | 1009.2 |
| 20260505121804 | 0 | 257 | 6.4 | 14.5 | 0.00 | 0.10 | 0.10 | 76 | 1009.1 |
| 20260505114803 | 2 | 358 | 0.0 | 3.2 | 0.00 | 0.10 | 0.10 | 69 | 1008.7 |
| 20260505113803 | 1 | 34 | 1.6 | 3.2 | 0.00 | 0.10 | 0.10 | 71 | 1008.8 |
| 20260505113303 | 1 | 23 | 3.2 | 4.8 | 0.00 | 0.10 | 0.10 | 72 | 1008.8 |
| 20260505112305 | 1 | 25 | 8.0 | 11.3 | 0.00 | 0.10 | 0.10 | 71 | 1008.7 |
| 20260505111804 | 1 | 21 | 4.8 | 11.3 | 0.00 | 0.10 | 0.10 | 70 | 1008.7 |
| 20260505111304 | 1 | 28 | 1.6 | 8.0 | 0.00 | 0.10 | 0.10 | 68 | 1008.8 |
| 20260505110303 | 0 | 226 | 0.0 | 1.6 | 0.00 | 0.10 | 0.10 | 69 | 1008.8 |
| 20260505101804 | 1 | 267 | 4.8 | 14.5 | 0.00 | 0.10 | 0.10 | 64 | 1008.7 |
| 20260505101304 | 1 | 247 | 3.2 | 8.0 | 0.00 | 0.10 | 0.10 | 60 | 1008.6 |
| 20260505100804 | 1 | 269 | 4.8 | 11.3 | 0.00 | 0.10 | 0.10 | 62 | 1008.6 |
| 20260505100303 | 1 | 257 | 3.2 | 11.3 | 0.00 | 0.10 | 0.10 | 65 | 1008.7 |
| 20260505095804 | 1 | 241 | 3.2 | 14.5 | 0.00 | 0.10 | 0.10 | 62 | 1008.7 |
| 20260505095305 | 1 | 227 | 1.6 | 4.8 | 0.00 | 0.10 | 0.10 | 64 | 1008.6 |
| 20260505094804 | 2 | 202 | 3.2 | 4.8 | 0.00 | 0.10 | 0.10 | 62 | 1008.6 |
| 20260505093804 | 1 | 245 | 1.6 | 4.8 | 0.03 | 0.10 | 0.10 | 65 | 1008.6 |
| 20260505093304 | 1 | 222 | 4.8 | 4.8 | 0.03 | 0.10 | 0.10 | 64 | 1008.8 |
| 20260505092803 | 1 | 207 | 1.6 | 8.0 | 0.03 | 0.10 | 0.10 | 67 | 1008.7 |
| 20260505092305 | 1 | 255 | 9.7 | 24.1 | 0.03 | 0.10 | 0.10 | 66 | 1008.6 |
| 20260505091804 | 1 | 57 | 1.6 | 4.8 | 0.03 | 0.10 | 0.10 | 65 | 1008.8 |
| 20260505091303 | 1 | 94 | 3.2 | 4.8 | 0.03 | 0.10 | 0.10 | 64 | 1008.8 |
| 20260505090804 | 1 | 260 | 3.2 | 8.0 | 0.05 | 0.10 | 0.10 | 69 | 1008.7 |
| 20260505090303 | 0 | 245 | 4.8 | 9.7 | 0.05 | 0.10 | 0.10 | 68 | 1008.7 |
| 20260505085804 | 0 | 261 | 4.8 | 8.0 | 0.05 | 0.10 | 0.10 | 67 | 1008.7 |
| 20260505084804 | 1 | 247 | 3.2 | 9.7 | 0.05 | 0.10 | 0.10 | 68 | 1008.7 |
| 20260505084304 | 0 | 230 | 3.2 | 8.0 | 0.05 | 0.10 | 0.10 | 67 | 1008.7 |
| 20260505083804 | 0 | 212 | 1.6 | 4.8 | 0.05 | 0.08 | 0.08 | 73 | 1008.6 |
| 20260505083304 | 0 | 141 | 3.2 | 4.8 | 0.05 | 0.08 | 0.08 | 75 | 1008.6 |
| 20260505082803 | 0 | 39 | 1.6 | 8.0 | 0.05 | 0.08 | 0.08 | 73 | 1008.7 |
| 20260505081804 | 0 | 87 | 1.6 | 9.7 | 0.05 | 0.08 | 0.08 | 74 | 1008.7 |
| 20260505080304 | 0 | 262 | 4.8 | 11.3 | 0.03 | 0.05 | 0.05 | 68 | 1008.7 |
| 20260505075804 | 1 | 273 | 3.2 | 8.0 | 0.03 | 0.05 | 0.05 | 73 | 1008.7 |
| 20260505075304 | 0 | 245 | 3.2 | 9.7 | 0.03 | 0.05 | 0.05 | 73 | 1008.7 |
| 20260505074304 | 0 | 221 | 3.2 | 4.8 | 0.05 | 0.05 | 0.05 | 73 | 1008.7 |
| 20260505073804 | 0 | 259 | 0.0 | 4.8 | 0.03 | 0.03 | 0.03 | 76 | 1008.7 |
| 20260505073304 | 0 | 216 | 1.6 | 3.2 | 0.03 | 0.03 | 0.03 | 75 | 1008.7 |
| 20260505072803 | 0 | 269 | 1.6 | 4.8 | 0.03 | 0.03 | 0.03 | 78 | 1008.6 |
| 20260505072305 | 0 | 251 | 3.2 | 4.8 | 0.03 | 0.03 | 0.03 | 78 | 1008.5 |
| 20260505071804 | 0 | 41 | 0.0 | 3.2 | 0.03 | 0.03 | 0.03 | 79 | 1008.7 |
| 20260505071303 | 0 | 272 | 0.0 | 3.2 | 0.03 | 0.03 | 0.03 | 79 | 1008.7 |
| 20260505070803 | 0 | 316 | 0.0 | 3.2 | 0.03 | 0.03 | 0.03 | 80 | 1008.7 |
| 20260505070303 | 0 | 16 | 0.0 | 4.8 | 0.03 | 0.03 | 0.03 | 79 | 1008.7 |
| 20260505065804 | 0 | 268 | 0.0 | 1.6 | 0.03 | 0.03 | 0.03 | 81 | 1008.7 |
| 20260505064803 | 0 | 268 | 0.0 | 1.6 | 0.00 | 0.00 | 0.00 | 82 | 1008.7 |
| 20260505064304 | -1 | 268 | 0.0 | 3.2 | 0.00 | 0.00 | 0.00 | 83 | 1008.7 |
| 20260505063304 | -1 | 268 | 0.0 | 4.8 | 0.00 | 0.03 | 0.00 | 84 | 1008.7 |
| 20260505062804 | -1 | 268 | 0.0 | 3.2 | 0.00 | 0.03 | 0.00 | 85 | 1008.7 |
| 20260505062304 | -1 | 276 | 0.0 | 3.2 | 0.00 | 0.03 | 0.00 | 85 | 1008.7 |
| 20260505061804 | -1 | 275 | 1.6 | 3.2 | 0.00 | 0.03 | 0.00 | 85 | 1008.6 |
| 20260505061303 | -1 | 271 | 0.0 | 3.2 | 0.00 | 0.03 | 0.00 | 87 | 1008.5 |
| 20260505060804 | -1 | 258 | 1.6 | 4.8 | 0.00 | 0.03 | 0.00 | 89 | 1008.5 |
| 20260505055803 | -1 | 264 | 0.0 | 3.2 | 0.00 | 0.03 | 0.00 | 89 | 1008.5 |
| 20260505055304 | -1 | 264 | 1.6 | 3.2 | 0.00 | 0.03 | 0.00 | 88 | 1008.5 |
| 20260505054304 | -1 | 265 | 0.0 | 3.2 | 0.00 | 0.05 | 0.00 | 88 | 1008.5 |
| 20260505053803 | -1 | 264 | 1.6 | 3.2 | 0.00 | 0.05 | 0.00 | 89 | 1008.4 |
| 20260505053304 | -2 | 264 | 0.0 | 1.6 | 0.00 | 0.05 | 0.00 | 89 | 1008.3 |
| 20260505052304 | -2 | 261 | 0.0 | 1.6 | 0.00 | 0.05 | 0.00 | 89 | 1008.2 |
| 20260505051804 | -2 | 261 | 0.0 | 3.2 | 0.00 | 0.08 | 0.00 | 89 | 1008.2 |
| 20260505051304 | -2 | 259 | 1.6 | 3.2 | 0.00 | 0.08 | 0.00 | 88 | 1008.3 |
| 20260505050304 | -2 | 273 | 0.0 | 0.0 | 0.00 | 0.10 | 0.00 | 88 | 1008.3 |